Time,TemperatureF,DewpointF,PressureIn,WindDirection,WindDirectionDegrees,WindSpeedMPH,WindSpeedGustMPH,Humidity,HourlyPrecipIn,Conditions,Clouds,dailyrainin,SolarRadiationWatts/m^2,SoftwareType,DateUTC
2013-03-23 00:08:00,30.1,25.0,30.11,WNW,298,3.0,7.0,81,0.00,,,0.00,0,weatherlink.com 1.10,2013-03-23 04:08:00,
2013-03-23 00:23:00,30.2,25.0,30.10,NNE,22,0.0,6.0,80,0.00,,,0.00,0,weatherlink.com 1.10,2013-03-23 04:23:00,
2013-03-23 00:38:00,29.9,24.0,30.11,NE,55,2.0,7.0,80,0.00,,,0.00,0,weatherlink.com 1.10,2013-03-23 04:38:00,
2013-03-23 00:53:00,29.7,24.0,30.11,NNE,31,2.0,5.0,80,0.00,,,0.00,0,weatherlink.com 1.10,2013-03-23 04:53:00,
2013-03-23 01:08:00,29.5,24.0,30.12,NNE,30,6.0,8.0,81,0.00,,,0.00,0,weatherlink.com 1.10,2013-03-23 05:08:00,
2013-03-23 01:23:00,29.2,24.0,30.12,NNE,22,4.0,8.0,81,0.00,,,0.00,0,weatherlink.com 1.10,2013-03-23 05:23:00,
2013-03-23 01:38:00,29.0,24.0,30.11,NNE,27,5.0,8.0,82,0.00,,,0.00,0,weatherlink.com 1.10,2013-03-23 05:38:00,
2013-03-23 01:53:00,28.8,24.0,30.11,NNE,25,2.0,6.0,81,0.00,,,0.00,0,weatherlink.com 1.10,2013-03-23 05:53:00,
2013-03-23 02:08:00,28.6,24.0,30.11,NNE,20,0.0,5.0,83,0.00,,,0.00,0,weatherlink.com 1.10,2013-03-23 06:08:00,
2013-03-23 02:23:00,28.5,24.0,30.12,North,350,0.0,8.0,84,0.00,,,0.00,0,weatherlink.com 1.10,2013-03-23 06:23:00,
2013-03-23 02:38:00,28.5,24.0,30.11,NNE,12,0.0,3.0,83,0.00,,,0.00,0,weatherlink.com 1.10,2013-03-23 06:38:00,
2013-03-23 02:53:00,28.4,24.0,30.11,NW,309,2.0,3.0,82,0.00,,,0.00,0,weatherlink.com 1.10,2013-03-23 06:53:00,
2013-03-23 03:08:00,28.4,24.0,30.11,NW,321,1.0,5.0,82,0.00,,,0.00,0,weatherlink.com 1.10,2013-03-23 07:08:00,
2013-03-23 03:23:00,28.4,24.0,30.12,NNE,28,2.0,3.0,83,0.00,,,0.00,0,weatherlink.com 1.10,2013-03-23 07:23:00,
2013-03-23 03:38:00,28.4,24.0,30.12,NE,38,0.0,2.0,82,0.00,,,0.00,0,weatherlink.com 1.10,2013-03-23 07:38:00,
2013-03-23 03:53:00,28.4,24.0,30.11,NW,311,2.0,3.0,83,0.00,,,0.00,0,weatherlink.com 1.10,2013-03-23 07:53:00,
2013-03-23 04:08:00,28.5,23.0,30.11,NNW,330,0.0,3.0,81,0.00,,,0.00,0,weatherlink.com 1.10,2013-03-23 08:08:00,
2013-03-23 04:23:00,28.4,24.0,30.11,North,5,0.0,0.0,82,0.00,,,0.00,0,weatherlink.com 1.10,2013-03-23 08:23:00,
2013-03-23 04:38:00,28.4,24.0,30.11,NNE,22,0.0,5.0,83,0.00,,,0.00,0,weatherlink.com 1.10,2013-03-23 08:38:00,
2013-03-23 04:53:00,28.4,24.0,30.11,North,9,0.0,2.0,82,0.00,,,0.00,0,weatherlink.com 1.10,2013-03-23 08:53:00,
2013-03-23 05:08:00,28.5,24.0,30.12,NNE,21,0.0,2.0,82,0.00,,,0.00,0,weatherlink.com 1.10,2013-03-23 09:08:00,
2013-03-23 05:24:00,28.4,24.0,30.12,NNE,21,1.0,2.0,82,0.00,,,0.00,0,weatherlink.com 1.10,2013-03-23 09:24:00,
2013-03-23 05:39:00,28.4,24.0,30.12,North,5,2.0,2.0,83,0.00,,,0.00,0,weatherlink.com 1.10,2013-03-23 09:39:00,
2013-03-23 05:54:00,28.6,24.0,30.12,NNW,333,1.0,3.0,84,0.00,,,0.00,0,weatherlink.com 1.10,2013-03-23 09:54:00,
2013-03-23 06:09:00,28.6,24.0,30.12,NNW,341,0.0,1.0,84,0.00,,,0.00,0,weatherlink.com 1.10,2013-03-23 10:09:00,
2013-03-23 06:24:00,28.6,25.0,30.12,NNW,341,0.0,0.0,86,0.00,,,0.00,0,weatherlink.com 1.10,2013-03-23 10:24:00,
2013-03-23 06:39:00,28.7,25.0,30.12,NNE,14,0.0,3.0,85,0.00,,,0.00,0,weatherlink.com 1.10,2013-03-23 10:39:00,
2013-03-23 06:54:00,28.8,25.0,30.12,NE,56,0.0,4.0,85,0.00,,,0.00,0,weatherlink.com 1.10,2013-03-23 10:54:00,
2013-03-23 07:09:00,28.5,25.0,30.13,NNW,329,0.0,2.0,85,0.00,,,0.00,0,weatherlink.com 1.10,2013-03-23 11:09:00,
2013-03-23 07:24:00,28.5,25.0,30.13,NNW,331,0.0,2.0,85,0.00,,,0.00,0,weatherlink.com 1.10,2013-03-23 11:24:00,
2013-03-23 07:39:00,28.8,25.0,30.13,NW,309,0.0,2.0,86,0.00,,,0.00,0,weatherlink.com 1.10,2013-03-23 11:39:00,
2013-03-23 07:54:00,29.1,25.0,30.13,NNW,330,0.0,1.0,86,0.00,,,0.00,7,weatherlink.com 1.10,2013-03-23 11:54:00,
2013-03-23 08:09:00,29.5,26.0,30.13,NW,319,0.0,4.0,87,0.00,,,0.00,16,weatherlink.com 1.10,2013-03-23 12:09:00,
2013-03-23 08:24:00,29.8,27.0,30.14,NE,43,2.0,3.0,88,0.00,,,0.00,19,weatherlink.com 1.10,2013-03-23 12:24:00,
2013-03-23 08:39:00,30.1,27.0,30.14,NNW,330,0.0,6.0,87,0.00,,,0.00,33,weatherlink.com 1.10,2013-03-23 12:39:00,
2013-03-23 08:54:00,30.6,27.0,30.15,NW,305,4.0,6.0,86,0.00,,,0.00,51,weatherlink.com 1.10,2013-03-23 12:54:00,
2013-03-23 09:09:00,30.8,27.0,30.15,WNW,300,2.0,6.0,87,0.00,,,0.00,60,weatherlink.com 1.10,2013-03-23 13:09:00,
2013-03-23 09:24:00,30.8,27.0,30.15,NW,308,2.0,6.0,86,0.00,,,0.00,70,weatherlink.com 1.10,2013-03-23 13:24:00,
2013-03-23 09:39:00,31.0,27.0,30.16,NW,309,3.0,6.0,86,0.00,,,0.00,105,weatherlink.com 1.10,2013-03-23 13:39:00,
2013-03-23 09:54:00,31.0,27.0,30.16,NW,311,3.0,5.0,86,0.00,,,0.00,109,weatherlink.com 1.10,2013-03-23 13:54:00,
2013-03-23 10:09:00,31.1,27.0,30.16,NW,311,2.0,5.0,86,0.00,,,0.00,109,weatherlink.com 1.10,2013-03-23 14:09:00,
2013-03-23 10:24:00,31.2,27.0,30.16,NW,309,3.0,4.0,85,0.00,,,0.00,114,weatherlink.com 1.10,2013-03-23 14:24:00,
2013-03-23 10:39:00,31.3,28.0,30.16,NW,313,4.0,4.0,86,0.00,,,0.00,104,weatherlink.com 1.10,2013-03-23 14:39:00,
2013-03-23 10:54:00,31.5,28.0,30.16,NW,311,2.0,4.0,86,0.00,,,0.00,206,weatherlink.com 1.10,2013-03-23 14:54:00,
2013-03-23 11:09:00,31.6,28.0,30.16,NW,311,1.0,4.0,86,0.00,,,0.00,174,weatherlink.com 1.10,2013-03-23 15:09:00,
2013-03-23 11:24:00,31.8,28.0,30.16,NW,315,2.0,4.0,86,0.00,,,0.00,167,weatherlink.com 1.10,2013-03-23 15:24:00,
2013-03-23 11:39:00,32.2,29.0,30.16,NW,311,2.0,3.0,86,0.00,,,0.00,237,weatherlink.com 1.10,2013-03-23 15:39:00,
2013-03-23 11:54:00,32.4,29.0,30.17,NW,317,2.0,4.0,86,0.00,,,0.00,279,weatherlink.com 1.10,2013-03-23 15:54:00,
2013-03-23 12:09:00,32.4,28.0,30.17,NW,312,2.0,4.0,85,0.00,,,0.00,272,weatherlink.com 1.10,2013-03-23 16:09:00,
2013-03-23 12:24:00,32.6,29.0,30.17,NW,313,3.0,4.0,85,0.00,,,0.00,281,weatherlink.com 1.10,2013-03-23 16:24:00,
2013-03-23 12:39:00,32.8,29.0,30.18,NW,308,2.0,5.0,85,0.00,,,0.00,292,weatherlink.com 1.10,2013-03-23 16:39:00,
2013-03-23 12:54:00,32.8,29.0,30.18,NW,305,3.0,5.0,85,0.00,,,0.00,301,weatherlink.com 1.10,2013-03-23 16:54:00,
2013-03-23 13:09:00,33.2,29.0,30.17,NW,311,3.0,5.0,84,0.00,,,0.00,749,weatherlink.com 1.10,2013-03-23 17:09:00,
2013-03-23 13:24:00,34.6,29.0,30.17,NW,306,4.0,5.0,79,0.00,,,0.00,1002,weatherlink.com 1.10,2013-03-23 17:24:00,
2013-03-23 13:39:00,33.9,29.0,30.17,NW,311,2.0,4.0,82,0.00,,,0.00,394,weatherlink.com 1.10,2013-03-23 17:39:00,
2013-03-23 13:54:00,33.7,28.0,30.17,NW,317,1.0,3.0,80,0.00,,,0.00,339,weatherlink.com 1.10,2013-03-23 17:54:00,
2013-03-23 14:09:00,33.8,28.0,30.18,NW,309,3.0,4.0,80,0.00,,,0.00,290,weatherlink.com 1.10,2013-03-23 18:09:00,
2013-03-23 14:24:00,33.4,29.0,30.17,NW,306,2.0,4.0,83,0.00,,,0.00,244,weatherlink.com 1.10,2013-03-23 18:24:00,
2013-03-23 14:39:00,33.2,29.0,30.17,NW,306,3.0,3.0,84,0.00,,,0.00,265,weatherlink.com 1.10,2013-03-23 18:39:00,
2013-03-23 14:54:00,33.1,29.0,30.17,NW,305,3.0,4.0,85,0.00,,,0.00,246,weatherlink.com 1.10,2013-03-23 18:54:00,
2013-03-23 15:09:00,33.0,29.0,30.17,NW,304,4.0,4.0,85,0.00,,,0.00,236,weatherlink.com 1.10,2013-03-23 19:09:00,
2013-03-23 15:24:00,32.9,29.0,30.17,NW,304,2.0,4.0,86,0.00,,,0.00,213,weatherlink.com 1.10,2013-03-23 19:24:00,
2013-03-23 15:39:00,32.9,29.0,30.17,NW,304,2.0,3.0,86,0.00,,,0.00,197,weatherlink.com 1.10,2013-03-23 19:39:00,
2013-03-23 15:54:00,32.9,29.0,30.16,NW,304,2.0,3.0,85,0.00,,,0.00,204,weatherlink.com 1.10,2013-03-23 19:54:00,
2013-03-23 16:09:00,33.0,29.0,30.16,NW,304,1.0,3.0,85,0.00,,,0.00,227,weatherlink.com 1.10,2013-03-23 20:09:00,
2013-03-23 16:24:00,33.5,29.0,30.16,NW,305,2.0,2.0,83,0.00,,,0.00,309,weatherlink.com 1.10,2013-03-23 20:24:00,
2013-03-23 16:39:00,34.4,29.0,30.15,NW,305,2.0,3.0,80,0.00,,,0.00,417,weatherlink.com 1.10,2013-03-23 20:39:00,
2013-03-23 16:54:00,34.5,29.0,30.15,NW,305,2.0,3.0,80,0.00,,,0.00,357,weatherlink.com 1.10,2013-03-23 20:54:00,
2013-03-23 17:09:00,34.4,29.0,30.15,NW,305,3.0,3.0,81,0.00,,,0.00,264,weatherlink.com 1.10,2013-03-23 21:09:00,
2013-03-23 17:25:00,33.9,27.0,30.16,NW,308,3.0,4.0,75,0.00,,,0.00,207,weatherlink.com 1.10,2013-03-23 21:25:00,
2013-03-23 17:40:00,33.8,28.0,30.15,NW,313,2.0,4.0,78,0.00,,,0.00,179,weatherlink.com 1.10,2013-03-23 21:40:00,
2013-03-23 17:55:00,33.7,27.0,30.15,NW,313,3.0,4.0,77,0.00,,,0.00,142,weatherlink.com 1.10,2013-03-23 21:55:00,
2013-03-23 18:10:00,33.6,27.0,30.15,NW,315,1.0,3.0,77,0.00,,,0.00,109,weatherlink.com 1.10,2013-03-23 22:10:00,
2013-03-23 18:25:00,33.6,28.0,30.15,NW,314,3.0,3.0,79,0.00,,,0.00,102,weatherlink.com 1.10,2013-03-23 22:25:00,
2013-03-23 18:40:00,33.7,28.0,30.16,NW,315,2.0,4.0,78,0.00,,,0.00,72,weatherlink.com 1.10,2013-03-23 22:40:00,
2013-03-23 18:55:00,33.6,28.0,30.16,NW,324,0.0,2.0,79,0.00,,,0.00,47,weatherlink.com 1.10,2013-03-23 22:55:00,
2013-03-23 19:10:00,33.4,28.0,30.16,NW,321,1.0,3.0,80,0.00,,,0.00,33,weatherlink.com 1.10,2013-03-23 23:10:00,
2013-03-23 19:25:00,33.3,27.0,30.16,NW,305,2.0,3.0,79,0.00,,,0.00,21,weatherlink.com 1.10,2013-03-23 23:25:00,
2013-03-23 19:40:00,33.1,28.0,30.16,NW,326,0.0,4.0,80,0.00,,,0.00,11,weatherlink.com 1.10,2013-03-23 23:40:00,
2013-03-23 19:55:00,33.1,27.0,30.16,NW,309,1.0,4.0,79,0.00,,,0.00,0,weatherlink.com 1.10,2013-03-23 23:55:00,
2013-03-23 20:10:00,33.2,28.0,30.16,NW,309,3.0,3.0,80,0.00,,,0.00,0,weatherlink.com 1.10,2013-03-24 00:10:00,
2013-03-23 20:25:00,33.3,28.0,30.16,NW,309,2.0,3.0,81,0.00,,,0.00,0,weatherlink.com 1.10,2013-03-24 00:25:00,
2013-03-23 20:40:00,33.2,28.0,30.16,NW,309,2.0,3.0,81,0.00,,,0.00,0,weatherlink.com 1.10,2013-03-24 00:40:00,
2013-03-23 20:55:00,33.2,28.0,30.16,NW,309,2.0,4.0,82,0.00,,,0.00,0,weatherlink.com 1.10,2013-03-24 00:55:00,
2013-03-23 21:10:00,33.2,29.0,30.16,NW,309,0.0,2.0,83,0.00,,,0.00,0,weatherlink.com 1.10,2013-03-24 01:10:00,
2013-03-23 21:25:00,33.1,29.0,30.15,NNW,329,0.0,2.0,85,0.00,,,0.00,0,weatherlink.com 1.10,2013-03-24 01:25:00,
2013-03-23 21:40:00,32.9,29.0,30.16,NNE,13,0.0,3.0,85,0.00,,,0.00,0,weatherlink.com 1.10,2013-03-24 01:40:00,
2013-03-23 21:55:00,32.7,29.0,30.15,NNE,13,0.0,0.0,86,0.00,,,0.00,0,weatherlink.com 1.10,2013-03-24 01:55:00,
2013-03-23 22:10:00,32.5,29.0,30.15,NNE,27,0.0,1.0,87,0.00,,,0.00,0,weatherlink.com 1.10,2013-03-24 02:10:00,
2013-03-23 22:25:00,32.4,29.0,30.15,NE,40,0.0,1.0,87,0.00,,,0.00,0,weatherlink.com 1.10,2013-03-24 02:25:00,
2013-03-23 22:40:00,32.5,29.0,30.14,NNE,22,0.0,2.0,85,0.00,,,0.00,0,weatherlink.com 1.10,2013-03-24 02:40:00,
2013-03-23 22:55:00,32.8,28.0,30.14,NNE,27,1.0,3.0,83,0.00,,,0.00,0,weatherlink.com 1.10,2013-03-24 02:55:00,
2013-03-23 23:10:00,32.9,27.0,30.14,NNE,19,3.0,4.0,79,0.00,,,0.00,0,weatherlink.com 1.10,2013-03-24 03:10:00,
2013-03-23 23:25:00,33.1,26.0,30.15,NNE,12,4.0,7.0,75,0.00,,,0.00,0,weatherlink.com 1.10,2013-03-24 03:25:00,
2013-03-23 23:40:00,33.1,26.0,30.15,NE,36,0.0,4.0,76,0.00,,,0.00,0,weatherlink.com 1.10,2013-03-24 03:40:00,
2013-03-23 23:55:00,33.0,26.0,30.14,NNE,24,2.0,4.0,74,0.00,,,0.00,0,weatherlink.com 1.10,2013-03-24 03:55:00,